Regional Weather Roundup
Issued by NWS Kansas City/Pleasant Hill, MO

Home | Current Version | Previous Version | Text Only | Print | Product List | Glossary On
Versions: 1 2 3 4 5 6 7 8 9 10 11 12 13 14 15 16 17 18 19 20 21 22 23 24 25 26 27 28
000
ASUS43 KEAX 280910
RWREAX

WEATHER ROUNDUP FOR EASTERN KANSAS AND NORTHWEST MISSOURI
NATIONAL WEATHER SERVICE KANSAS CITY/PLEASANT HILL MO
400 AM CDT WED SEP 28 2016

KSZ040-057-103>105-MOZ028-029-037-043-281000-
...KANSAS CITY METROPOLITAN AREA...

CITY           SKY/WX    TMP DP  RH WIND       PRES   REMARKS
K.C. INTL      CLEAR     59  53  80 NW7       29.87S
K.C. DOWNTOWN  CLEAR     63  55  75 CALM      29.86S
LEES SUMMIT    CLEAR     60  55  83 W7        29.86F
OLATHE - IXD   CLEAR     60  55  83 W5        29.88S
OLATHE - OJC   CLEAR     61  54  77 NW6       29.87F
LAWRENCE       CLEAR     53  53 100 NW5       29.87F

$$

MOZ001>008-011>017-020>025-030>033-038>040-044>046-053-054-281000-
...NORTHERN AND CENTRAL MISSOURI...

CITY           SKY/WX    TMP DP  RH WIND       PRES   REMARKS
ST. JOSEPH     CLEAR     53  52  96 N7        29.88R
MOSBY          SUNNY     52  52 100 CALM      29.86S
WHITEMAN AFB   CLEAR     59  57  93 SW5       29.84S
CLINTON        CLEAR     59  54  82 SW7       29.86S
SEDALIA        CLEAR     62  54  74 SW7       29.85F
WARSAW         NOT AVBL
CHILLICOTHE      N/A     59  49  69 N5        29.86S
KIRKSVILLE     CLOUDY    57  46  66 N10       29.85R

$$

MOZ041-047>049-056>058-063>065-088>090-097-281000-
...EASTERN AND SOUTHERN MISSOURI...

CITY           SKY/WX    TMP DP  RH WIND       PRES   REMARKS
ST. LOUIS INTL PTCLDY    64  53  67 W7        29.79F
SPIRIT OF STL  CLEAR     61  54  77 W8        29.79S
COLUMBIA       CLOUDY    61  55  81 W8        29.82F
JEFFERSON CITY MOCLDY    60  54  80 CALM      29.83S
ROLLA          CLEAR     56  50  80 SW9       29.84F
OSAGE BEACH    CLEAR     62  52  69 SW5       29.86F
SPRINGFIELD    CLEAR     62  48  60 SW9       29.90F
BRANSON        CLEAR     63  45  51 SW6       29.94F
JOPLIN         CLEAR     64  50  60 SW12      29.91F
WEST PLAINS    CLEAR     56  49  77 SW6       29.93F

$$

IAZ060-094-KSZ022-034>040-054-083-096-NEZ052-066-093-281000-
...KANSAS...SOUTHEAST NEBRASKA AND IOWA...

CITY           SKY/WX    TMP DP  RH WIND       PRES   REMARKS
TOPEKA         CLEAR     58  54  86 CALM      29.88S
MANHATTAN      CLEAR     54  52  93 SW3       29.91S
EMPORIA        CLEAR     62  55  77 W8        29.89S
CHANUTE        CLEAR     60  52  74 SW6       29.89S
WICHITA        CLEAR     58  54  86 CALM      29.91F
OMAHA          CLEAR     50  45  83 N9        29.96R
LINCOLN        CLEAR     50  46  86 N7        29.98R
FALLS CITY     CLEAR     54  50  86 NW8       29.90R
LAMONI         PTCLDY    53  45  74 N9        29.90R
DES MOINES     MOCLDY    56  43  61 N15       29.91R

$$





USA.gov is the U.S. government's official web portal to all federal, state and local government web resources and services.